owner,sensor,date,latitude,longitude,vertical_datum,sea_water_temperature,qcFlag 
DISL,ioos:station:DISL:DISL:1,2015-08-01T00:00:00Z,30.2513,-88.0778,-1.72,29.72,2 
DISL,ioos:station:DISL:DISL:1,2015-08-01T00:30:00Z,30.2513,-88.0778,-1.72,29.8,2 
DISL,ioos:station:DISL:DISL:1,2015-08-01T01:00:00Z,30.2513,-88.0778,-1.72,29.7,2 
DISL,ioos:station:DISL:DISL:1,2015-08-01T01:30:00Z,30.2513,-88.0778,-1.72,29.5,2 
DISL,ioos:station:DISL:DISL:1,2015-08-01T02:00:00Z,30.2513,-88.0778,-1.72,29.34,2 
DISL,ioos:station:DISL:DISL:1,2015-08-01T02:30:00Z,30.2513,-88.0778,-1.72,29.28,2 
DISL,ioos:station:DISL:DISL:1,2015-08-01T03:00:00Z,30.2513,-88.0778,-1.72,29.18,2 
DISL,ioos:station:DISL:DISL:1,2015-08-01T03:30:00Z,30.2513,-88.0778,-1.72,29.04,2 
DISL,ioos:station:DISL:DISL:1,2015-08-01T04:00:00Z,30.2513,-88.0778,-1.72,28.92,2 
DISL,ioos:station:DISL:DISL:1,2015-08-01T04:30:00Z,30.2513,-88.0778,-1.72,28.91,2 
DISL,ioos:station:DISL:DISL:1,2015-08-01T05:00:00Z,30.2513,-88.0778,-1.72,28.91,2 
DISL,ioos:station:DISL:DISL:1,2015-08-01T05:30:00Z,30.2513,-88.0778,-1.72,29.0,2 
DISL,ioos:station:DISL:DISL:1,2015-08-01T06:00:00Z,30.2513,-88.0778,-1.72,29.15,2 
DISL,ioos:station:DISL:DISL:1,2015-08-01T06:30:00Z,30.2513,-88.0778,-1.72,29.21,2 
DISL,ioos:station:DISL:DISL:1,2015-08-01T07:00:00Z,30.2513,-88.0778,-1.72,29.22,2 
DISL,ioos:station:DISL:DISL:1,2015-08-01T07:30:00Z,30.2513,-88.0778,-1.72,29.2,2 
DISL,ioos:station:DISL:DISL:1,2015-08-01T08:00:00Z,30.2513,-88.0778,-1.72,29.16,2 
DISL,ioos:station:DISL:DISL:1,2015-08-01T08:30:00Z,30.2513,-88.0778,-1.72,28.71,2 
DISL,ioos:station:DISL:DISL:1,2015-08-01T09:00:00Z,30.2513,-88.0778,-1.72,28.59,2 
DISL,ioos:station:DISL:DISL:1,2015-08-01T09:30:00Z,30.2513,-88.0778,-1.72,28.8,2 
DISL,ioos:station:DISL:DISL:1,2015-08-01T10:00:00Z,30.2513,-88.0778,-1.72,28.73,2 
DISL,ioos:station:DISL:DISL:1,2015-08-01T10:30:00Z,30.2513,-88.0778,-1.72,28.73,2 
DISL,ioos:station:DISL:DISL:1,2015-08-01T11:00:00Z,30.2513,-88.0778,-1.72,28.7,2 
DISL,ioos:station:DISL:DISL:1,2015-08-01T11:30:00Z,30.2513,-88.0778,-1.72,28.78,2 
DISL,ioos:station:DISL:DISL:1,2015-08-01T12:00:00Z,30.2513,-88.0778,-1.72,28.79,2 
DISL,ioos:station:DISL:DISL:1,2015-08-01T12:30:00Z,30.2513,-88.0778,-1.72,28.77,2 
DISL,ioos:station:DISL:DISL:1,2015-08-01T13:00:00Z,30.2513,-88.0778,-1.72,28.77,2 
DISL,ioos:station:DISL:DISL:1,2015-08-01T13:30:00Z,30.2513,-88.0778,-1.72,28.75,2 
DISL,ioos:station:DISL:DISL:1,2015-08-01T14:00:00Z,30.2513,-88.0778,-1.72,28.72,2 
DISL,ioos:station:DISL:DISL:1,2015-08-01T14:30:00Z,30.2513,-88.0778,-1.72,28.74,2 
DISL,ioos:station:DISL:DISL:1,2015-08-01T15:00:00Z,30.2513,-88.0778,-1.72,28.75,2 
DISL,ioos:station:DISL:DISL:1,2015-08-01T15:30:00Z,30.2513,-88.0778,-1.72,28.69,2 
DISL,ioos:station:DISL:DISL:1,2015-08-01T16:00:00Z,30.2513,-88.0778,-1.72,28.58,2 
DISL,ioos:station:DISL:DISL:1,2015-08-01T16:30:00Z,30.2513,-88.0778,-1.72,28.65,2 
DISL,ioos:station:DISL:DISL:1,2015-08-01T17:00:00Z,30.2513,-88.0778,-1.72,28.52,2 
DISL,ioos:station:DISL:DISL:1,2015-08-01T17:30:00Z,30.2513,-88.0778,-1.72,28.32,2 
DISL,ioos:station:DISL:DISL:1,2015-08-01T18:00:00Z,30.2513,-88.0778,-1.72,28.51,2 
DISL,ioos:station:DISL:DISL:1,2015-08-01T18:30:00Z,30.2513,-88.0778,-1.72,28.71,2 
DISL,ioos:station:DISL:DISL:1,2015-08-01T19:00:00Z,30.2513,-88.0778,-1.72,28.93,2 
DISL,ioos:station:DISL:DISL:1,2015-08-01T19:30:00Z,30.2513,-88.0778,-1.72,29.16,2 
DISL,ioos:station:DISL:DISL:1,2015-08-01T20:00:00Z,30.2513,-88.0778,-1.72,29.35,2 
DISL,ioos:station:DISL:DISL:1,2015-08-01T20:30:00Z,30.2513,-88.0778,-1.72,29.51,2 
DISL,ioos:station:DISL:DISL:1,2015-08-01T21:00:00Z,30.2513,-88.0778,-1.72,29.69,2 
DISL,ioos:station:DISL:DISL:1,2015-08-01T21:30:00Z,30.2513,-88.0778,-1.72,29.83,2 
DISL,ioos:station:DISL:DISL:1,2015-08-01T22:00:00Z,30.2513,-88.0778,-1.72,29.95,2 
DISL,ioos:station:DISL:DISL:1,2015-08-01T22:30:00Z,30.2513,-88.0778,-1.72,30.57,2 
DISL,ioos:station:DISL:DISL:1,2015-08-01T23:00:00Z,30.2513,-88.0778,-1.72,29.34,2 
DISL,ioos:station:DISL:DISL:1,2015-08-01T23:30:00Z,30.2513,-88.0778,-1.72,29.47,2 
DISL,ioos:station:DISL:DISL:1,2015-08-02T00:00:00Z,30.2513,-88.0778,-1.72,29.58,2 
DISL,ioos:station:DISL:DISL:1,2015-08-02T00:30:00Z,30.2513,-88.0778,-1.72,29.83,2 
DISL,ioos:station:DISL:DISL:1,2015-08-02T01:00:00Z,30.2513,-88.0778,-1.72,29.91,2 
DISL,ioos:station:DISL:DISL:1,2015-08-02T01:30:00Z,30.2513,-88.0778,-1.72,29.95,2 
DISL,ioos:station:DISL:DISL:1,2015-08-02T02:00:00Z,30.2513,-88.0778,-1.72,29.92,2 
DISL,ioos:station:DISL:DISL:1,2015-08-02T02:30:00Z,30.2513,-88.0778,-1.72,29.97,2 
DISL,ioos:station:DISL:DISL:1,2015-08-02T03:00:00Z,30.2513,-88.0778,-1.72,29.97,2 
DISL,ioos:station:DISL:DISL:1,2015-08-02T03:30:00Z,30.2513,-88.0778,-1.72,29.89,2 
DISL,ioos:station:DISL:DISL:1,2015-08-02T04:00:00Z,30.2513,-88.0778,-1.72,29.61,2 
DISL,ioos:station:DISL:DISL:1,2015-08-02T04:30:00Z,30.2513,-88.0778,-1.72,29.47,2 
DISL,ioos:station:DISL:DISL:1,2015-08-02T05:00:00Z,30.2513,-88.0778,-1.72,29.4,2 
DISL,ioos:station:DISL:DISL:1,2015-08-02T05:30:00Z,30.2513,-88.0778,-1.72,29.48,2 
DISL,ioos:station:DISL:DISL:1,2015-08-02T06:00:00Z,30.2513,-88.0778,-1.72,29.66,2 
DISL,ioos:station:DISL:DISL:1,2015-08-02T06:30:00Z,30.2513,-88.0778,-1.72,29.41,2 
DISL,ioos:station:DISL:DISL:1,2015-08-02T07:00:00Z,30.2513,-88.0778,-1.72,29.55,2 
DISL,ioos:station:DISL:DISL:1,2015-08-02T07:30:00Z,30.2513,-88.0778,-1.72,29.56,2 
DISL,ioos:station:DISL:DISL:1,2015-08-02T08:00:00Z,30.2513,-88.0778,-1.72,29.43,2 
DISL,ioos:station:DISL:DISL:1,2015-08-02T08:30:00Z,30.2513,-88.0778,-1.72,29.21,2 
DISL,ioos:station:DISL:DISL:1,2015-08-02T09:00:00Z,30.2513,-88.0778,-1.72,29.17,2 
DISL,ioos:station:DISL:DISL:1,2015-08-02T09:30:00Z,30.2513,-88.0778,-1.72,29.05,2 
DISL,ioos:station:DISL:DISL:1,2015-08-02T10:00:00Z,30.2513,-88.0778,-1.72,28.9,2 
DISL,ioos:station:DISL:DISL:1,2015-08-02T10:30:00Z,30.2513,-88.0778,-1.72,28.7,2 
DISL,ioos:station:DISL:DISL:1,2015-08-02T11:00:00Z,30.2513,-88.0778,-1.72,28.86,2 
DISL,ioos:station:DISL:DISL:1,2015-08-02T11:30:00Z,30.2513,-88.0778,-1.72,28.85,2 
DISL,ioos:station:DISL:DISL:1,2015-08-02T12:00:00Z,30.2513,-88.0778,-1.72,28.79,2 
DISL,ioos:station:DISL:DISL:1,2015-08-02T12:30:00Z,30.2513,-88.0778,-1.72,28.83,2 
DISL,ioos:station:DISL:DISL:1,2015-08-02T13:00:00Z,30.2513,-88.0778,-1.72,28.94,2 
DISL,ioos:station:DISL:DISL:1,2015-08-02T13:30:00Z,30.2513,-88.0778,-1.72,29.0,2 
DISL,ioos:station:DISL:DISL:1,2015-08-02T14:00:00Z,30.2513,-88.0778,-1.72,29.08,2 
DISL,ioos:station:DISL:DISL:1,2015-08-02T14:30:00Z,30.2513,-88.0778,-1.72,29.22,2 
DISL,ioos:station:DISL:DISL:1,2015-08-02T15:00:00Z,30.2513,-88.0778,-1.72,29.23,2 
DISL,ioos:station:DISL:DISL:1,2015-08-02T15:30:00Z,30.2513,-88.0778,-1.72,29.25,2 
DISL,ioos:station:DISL:DISL:1,2015-08-02T16:00:00Z,30.2513,-88.0778,-1.72,29.22,2 
DISL,ioos:station:DISL:DISL:1,2015-08-02T16:30:00Z,30.2513,-88.0778,-1.72,29.15,2 
DISL,ioos:station:DISL:DISL:1,2015-08-02T17:00:00Z,30.2513,-88.0778,-1.72,29.09,2 
DISL,ioos:station:DISL:DISL:1,2015-08-02T17:30:00Z,30.2513,-88.0778,-1.72,29.09,2 
DISL,ioos:station:DISL:DISL:1,2015-08-02T18:00:00Z,30.2513,-88.0778,-1.72,29.42,2 
DISL,ioos:station:DISL:DISL:1,2015-08-02T18:30:00Z,30.2513,-88.0778,-1.72,29.36,2 
DISL,ioos:station:DISL:DISL:1,2015-08-02T19:00:00Z,30.2513,-88.0778,-1.72,29.85,2 
DISL,ioos:station:DISL:DISL:1,2015-08-02T19:30:00Z,30.2513,-88.0778,-1.72,30.12,2 
DISL,ioos:station:DISL:DISL:1,2015-08-02T20:00:00Z,30.2513,-88.0778,-1.72,30.21,2 
DISL,ioos:station:DISL:DISL:1,2015-08-02T20:30:00Z,30.2513,-88.0778,-1.72,30.41,2 
DISL,ioos:station:DISL:DISL:1,2015-08-02T21:00:00Z,30.2513,-88.0778,-1.72,30.51,2 
DISL,ioos:station:DISL:DISL:1,2015-08-02T21:30:00Z,30.2513,-88.0778,-1.72,30.84,2 
DISL,ioos:station:DISL:DISL:1,2015-08-02T22:00:00Z,30.2513,-88.0778,-1.72,31.04,2 
DISL,ioos:station:DISL:DISL:1,2015-08-02T22:30:00Z,30.2513,-88.0778,-1.72,31.12,2 
DISL,ioos:station:DISL:DISL:1,2015-08-02T23:00:00Z,30.2513,-88.0778,-1.72,31.13,2 
DISL,ioos:station:DISL:DISL:1,2015-08-02T23:30:00Z,30.2513,-88.0778,-1.72,31.04,2 
DISL,ioos:station:DISL:DISL:1,2015-08-03T00:00:00Z,30.2513,-88.0778,-1.72,31.17,2 
DISL,ioos:station:DISL:DISL:1,2015-08-03T00:30:00Z,30.2513,-88.0778,-1.72,29.63,2 
DISL,ioos:station:DISL:DISL:1,2015-08-03T01:00:00Z,30.2513,-88.0778,-1.72,29.5,2 
DISL,ioos:station:DISL:DISL:1,2015-08-03T01:30:00Z,30.2513,-88.0778,-1.72,29.33,2 
DISL,ioos:station:DISL:DISL:1,2015-08-03T02:00:00Z,30.2513,-88.0778,-1.72,29.45,2 
DISL,ioos:station:DISL:DISL:1,2015-08-03T02:30:00Z,30.2513,-88.0778,-1.72,29.64,2 
DISL,ioos:station:DISL:DISL:1,2015-08-03T03:00:00Z,30.2513,-88.0778,-1.72,29.78,2 
DISL,ioos:station:DISL:DISL:1,2015-08-03T03:30:00Z,30.2513,-88.0778,-1.72,29.74,2 
DISL,ioos:station:DISL:DISL:1,2015-08-03T04:00:00Z,30.2513,-88.0778,-1.72,29.9,2 
DISL,ioos:station:DISL:DISL:1,2015-08-03T04:30:00Z,30.2513,-88.0778,-1.72,29.51,2 
DISL,ioos:station:DISL:DISL:1,2015-08-03T05:00:00Z,30.2513,-88.0778,-1.72,29.41,2 
DISL,ioos:station:DISL:DISL:1,2015-08-03T05:30:00Z,30.2513,-88.0778,-1.72,29.31,2 
DISL,ioos:station:DISL:DISL:1,2015-08-03T06:00:00Z,30.2513,-88.0778,-1.72,29.37,2 
DISL,ioos:station:DISL:DISL:1,2015-08-03T06:30:00Z,30.2513,-88.0778,-1.72,29.6,2 
DISL,ioos:station:DISL:DISL:1,2015-08-03T07:00:00Z,30.2513,-88.0778,-1.72,29.71,2 
DISL,ioos:station:DISL:DISL:1,2015-08-03T07:30:00Z,30.2513,-88.0778,-1.72,29.7,2 
DISL,ioos:station:DISL:DISL:1,2015-08-03T08:00:00Z,30.2513,-88.0778,-1.72,29.44,2 
DISL,ioos:station:DISL:DISL:1,2015-08-03T08:30:00Z,30.2513,-88.0778,-1.72,29.56,2 
DISL,ioos:station:DISL:DISL:1,2015-08-03T09:00:00Z,30.2513,-88.0778,-1.72,29.62,2 
DISL,ioos:station:DISL:DISL:1,2015-08-03T09:30:00Z,30.2513,-88.0778,-1.72,29.53,2 
DISL,ioos:station:DISL:DISL:1,2015-08-03T10:00:00Z,30.2513,-88.0778,-1.72,29.43,2 
DISL,ioos:station:DISL:DISL:1,2015-08-03T10:30:00Z,30.2513,-88.0778,-1.72,29.38,2 
DISL,ioos:station:DISL:DISL:1,2015-08-03T11:00:00Z,30.2513,-88.0778,-1.72,29.32,2 
DISL,ioos:station:DISL:DISL:1,2015-08-03T11:30:00Z,30.2513,-88.0778,-1.72,29.23,2 
DISL,ioos:station:DISL:DISL:1,2015-08-03T12:00:00Z,30.2513,-88.0778,-1.72,29.19,2 
DISL,ioos:station:DISL:DISL:1,2015-08-03T12:30:00Z,30.2513,-88.0778,-1.72,29.15,2 
DISL,ioos:station:DISL:DISL:1,2015-08-03T13:00:00Z,30.2513,-88.0778,-1.72,28.65,2 
DISL,ioos:station:DISL:DISL:1,2015-08-03T13:30:00Z,30.2513,-88.0778,-1.72,28.76,2 
DISL,ioos:station:DISL:DISL:1,2015-08-03T14:00:00Z,30.2513,-88.0778,-1.72,28.87,2 
DISL,ioos:station:DISL:DISL:1,2015-08-03T14:30:00Z,30.2513,-88.0778,-1.72,28.96,2 
DISL,ioos:station:DISL:DISL:1,2015-08-03T15:00:00Z,30.2513,-88.0778,-1.72,28.99,2 
DISL,ioos:station:DISL:DISL:1,2015-08-03T15:30:00Z,30.2513,-88.0778,-1.72,29.03,2 
DISL,ioos:station:DISL:DISL:1,2015-08-03T16:00:00Z,30.2513,-88.0778,-1.72,29.09,2 
DISL,ioos:station:DISL:DISL:1,2015-08-03T16:30:00Z,30.2513,-88.0778,-1.72,29.08,2 
DISL,ioos:station:DISL:DISL:1,2015-08-03T17:00:00Z,30.2513,-88.0778,-1.72,29.08,2 
DISL,ioos:station:DISL:DISL:1,2015-08-03T17:30:00Z,30.2513,-88.0778,-1.72,29.14,2 
DISL,ioos:station:DISL:DISL:1,2015-08-03T18:00:00Z,30.2513,-88.0778,-1.72,29.08,2 
DISL,ioos:station:DISL:DISL:1,2015-08-03T18:30:00Z,30.2513,-88.0778,-1.72,29.11,2 
DISL,ioos:station:DISL:DISL:1,2015-08-03T19:00:00Z,30.2513,-88.0778,-1.72,29.26,2 
DISL,ioos:station:DISL:DISL:1,2015-08-03T19:30:00Z,30.2513,-88.0778,-1.72,29.36,2 
DISL,ioos:station:DISL:DISL:1,2015-08-03T20:00:00Z,30.2513,-88.0778,-1.72,30.04,2 
DISL,ioos:station:DISL:DISL:1,2015-08-03T20:30:00Z,30.2513,-88.0778,-1.72,29.98,2 
DISL,ioos:station:DISL:DISL:1,2015-08-03T21:00:00Z,30.2513,-88.0778,-1.72,30.93,2 
DISL,ioos:station:DISL:DISL:1,2015-08-03T21:30:00Z,30.2513,-88.0778,-1.72,31.05,2 
DISL,ioos:station:DISL:DISL:1,2015-08-03T22:00:00Z,30.2513,-88.0778,-1.72,31.02,2 
DISL,ioos:station:DISL:DISL:1,2015-08-03T22:30:00Z,30.2513,-88.0778,-1.72,31.06,2 
DISL,ioos:station:DISL:DISL:1,2015-08-03T23:00:00Z,30.2513,-88.0778,-1.72,31.1,2 
DISL,ioos:station:DISL:DISL:1,2015-08-03T23:30:00Z,30.2513,-88.0778,-1.72,31.08,2 
DISL,ioos:station:DISL:DISL:1,2015-08-04T00:00:00Z,30.2513,-88.0778,-1.72,30.69,2 
DISL,ioos:station:DISL:DISL:1,2015-08-04T00:30:00Z,30.2513,-88.0778,-1.72,29.56,2 
DISL,ioos:station:DISL:DISL:1,2015-08-04T01:00:00Z,30.2513,-88.0778,-1.72,29.41,2 
DISL,ioos:station:DISL:DISL:1,2015-08-04T01:30:00Z,30.2513,-88.0778,-1.72,29.08,2 
DISL,ioos:station:DISL:DISL:1,2015-08-04T02:00:00Z,30.2513,-88.0778,-1.72,29.03,2 
DISL,ioos:station:DISL:DISL:1,2015-08-04T02:30:00Z,30.2513,-88.0778,-1.72,28.99,2 
DISL,ioos:station:DISL:DISL:1,2015-08-04T03:00:00Z,30.2513,-88.0778,-1.72,29.02,2 
DISL,ioos:station:DISL:DISL:1,2015-08-04T03:30:00Z,30.2513,-88.0778,-1.72,29.2,2 
DISL,ioos:station:DISL:DISL:1,2015-08-04T04:00:00Z,30.2513,-88.0778,-1.72,29.22,2 
DISL,ioos:station:DISL:DISL:1,2015-08-04T04:30:00Z,30.2513,-88.0778,-1.72,29.38,2 
DISL,ioos:station:DISL:DISL:1,2015-08-04T05:00:00Z,30.2513,-88.0778,-1.72,29.31,2 
DISL,ioos:station:DISL:DISL:1,2015-08-04T05:30:00Z,30.2513,-88.0778,-1.72,29.29,2 
DISL,ioos:station:DISL:DISL:1,2015-08-04T06:00:00Z,30.2513,-88.0778,-1.72,29.17,2 
DISL,ioos:station:DISL:DISL:1,2015-08-04T06:30:00Z,30.2513,-88.0778,-1.72,29.03,2 
DISL,ioos:station:DISL:DISL:1,2015-08-04T07:00:00Z,30.2513,-88.0778,-1.72,29.0,2 
DISL,ioos:station:DISL:DISL:1,2015-08-04T07:30:00Z,30.2513,-88.0778,-1.72,29.05,2 
DISL,ioos:station:DISL:DISL:1,2015-08-04T08:00:00Z,30.2513,-88.0778,-1.72,29.08,2 
DISL,ioos:station:DISL:DISL:1,2015-08-04T08:30:00Z,30.2513,-88.0778,-1.72,29.12,2 
DISL,ioos:station:DISL:DISL:1,2015-08-04T09:00:00Z,30.2513,-88.0778,-1.72,29.07,2 
DISL,ioos:station:DISL:DISL:1,2015-08-04T09:30:00Z,30.2513,-88.0778,-1.72,29.05,2 
DISL,ioos:station:DISL:DISL:1,2015-08-04T10:00:00Z,30.2513,-88.0778,-1.72,29.04,2 
DISL,ioos:station:DISL:DISL:1,2015-08-04T10:30:00Z,30.2513,-88.0778,-1.72,29.03,2 
DISL,ioos:station:DISL:DISL:1,2015-08-04T11:00:00Z,30.2513,-88.0778,-1.72,29.03,2 
DISL,ioos:station:DISL:DISL:1,2015-08-04T11:30:00Z,30.2513,-88.0778,-1.72,29.08,2 
DISL,ioos:station:DISL:DISL:1,2015-08-04T12:00:00Z,30.2513,-88.0778,-1.72,29.03,2 
DISL,ioos:station:DISL:DISL:1,2015-08-04T12:30:00Z,30.2513,-88.0778,-1.72,29.01,2 
DISL,ioos:station:DISL:DISL:1,2015-08-04T13:00:00Z,30.2513,-88.0778,-1.72,29.0,2 
DISL,ioos:station:DISL:DISL:1,2015-08-04T13:30:00Z,30.2513,-88.0778,-1.72,28.55,2 
DISL,ioos:station:DISL:DISL:1,2015-08-04T14:00:00Z,30.2513,-88.0778,-1.72,28.56,2 
DISL,ioos:station:DISL:DISL:1,2015-08-04T14:30:00Z,30.2513,-88.0778,-1.72,28.67,2 
DISL,ioos:station:DISL:DISL:1,2015-08-04T15:00:00Z,30.2513,-88.0778,-1.72,28.94,2 
DISL,ioos:station:DISL:DISL:1,2015-08-04T15:30:00Z,30.2513,-88.0778,-1.72,29.0,2 
DISL,ioos:station:DISL:DISL:1,2015-08-04T16:00:00Z,30.2513,-88.0778,-1.72,29.06,2 
DISL,ioos:station:DISL:DISL:1,2015-08-04T16:30:00Z,30.2513,-88.0778,-1.72,29.0,2 
DISL,ioos:station:DISL:DISL:1,2015-08-04T17:00:00Z,30.2513,-88.0778,-1.72,29.02,2 
DISL,ioos:station:DISL:DISL:1,2015-08-04T17:30:00Z,30.2513,-88.0778,-1.72,29.05,2 
DISL,ioos:station:DISL:DISL:1,2015-08-04T18:00:00Z,30.2513,-88.0778,-1.72,29.38,2 
DISL,ioos:station:DISL:DISL:1,2015-08-04T18:30:00Z,30.2513,-88.0778,-1.72,29.17,2 
DISL,ioos:station:DISL:DISL:1,2015-08-04T19:00:00Z,30.2513,-88.0778,-1.72,30.0,2 
DISL,ioos:station:DISL:DISL:1,2015-08-04T19:30:00Z,30.2513,-88.0778,-1.72,30.01,2 
DISL,ioos:station:DISL:DISL:1,2015-08-04T20:00:00Z,30.2513,-88.0778,-1.72,30.36,2 
DISL,ioos:station:DISL:DISL:1,2015-08-04T20:30:00Z,30.2513,-88.0778,-1.72,30.67,2 
DISL,ioos:station:DISL:DISL:1,2015-08-04T21:00:00Z,30.2513,-88.0778,-1.72,29.79,2 
DISL,ioos:station:DISL:DISL:1,2015-08-04T21:30:00Z,30.2513,-88.0778,-1.72,29.92,2 
DISL,ioos:station:DISL:DISL:1,2015-08-04T22:00:00Z,30.2513,-88.0778,-1.72,29.79,2 
DISL,ioos:station:DISL:DISL:1,2015-08-04T22:30:00Z,30.2513,-88.0778,-1.72,29.67,2 
DISL,ioos:station:DISL:DISL:1,2015-08-04T23:00:00Z,30.2513,-88.0778,-1.72,29.78,2 
DISL,ioos:station:DISL:DISL:1,2015-08-04T23:30:00Z,30.2513,-88.0778,-1.72,30.11,2 
DISL,ioos:station:DISL:DISL:1,2015-08-05T00:00:00Z,30.2513,-88.0778,-1.72,30.54,2 
DISL,ioos:station:DISL:DISL:1,2015-08-05T00:30:00Z,30.2513,-88.0778,-1.72,30.02,2 
DISL,ioos:station:DISL:DISL:1,2015-08-05T01:00:00Z,30.2513,-88.0778,-1.72,29.74,2 
DISL,ioos:station:DISL:DISL:1,2015-08-05T01:30:00Z,30.2513,-88.0778,-1.72,29.69,2 
DISL,ioos:station:DISL:DISL:1,2015-08-05T02:00:00Z,30.2513,-88.0778,-1.72,29.5,2 
DISL,ioos:station:DISL:DISL:1,2015-08-05T02:30:00Z,30.2513,-88.0778,-1.72,29.09,2 
DISL,ioos:station:DISL:DISL:1,2015-08-05T03:00:00Z,30.2513,-88.0778,-1.72,28.94,2 
DISL,ioos:station:DISL:DISL:1,2015-08-05T03:30:00Z,30.2513,-88.0778,-1.72,28.69,2 
DISL,ioos:station:DISL:DISL:1,2015-08-05T04:00:00Z,30.2513,-88.0778,-1.72,28.62,2 
DISL,ioos:station:DISL:DISL:1,2015-08-05T04:30:00Z,30.2513,-88.0778,-1.72,28.62,2 
DISL,ioos:station:DISL:DISL:1,2015-08-05T05:00:00Z,30.2513,-88.0778,-1.72,28.6,2 
DISL,ioos:station:DISL:DISL:1,2015-08-05T05:30:00Z,30.2513,-88.0778,-1.72,28.64,2 
DISL,ioos:station:DISL:DISL:1,2015-08-05T06:00:00Z,30.2513,-88.0778,-1.72,28.69,2 
DISL,ioos:station:DISL:DISL:1,2015-08-05T06:30:00Z,30.2513,-88.0778,-1.72,28.75,2 
DISL,ioos:station:DISL:DISL:1,2015-08-05T07:00:00Z,30.2513,-88.0778,-1.72,28.73,2 
DISL,ioos:station:DISL:DISL:1,2015-08-05T07:30:00Z,30.2513,-88.0778,-1.72,28.81,2 
DISL,ioos:station:DISL:DISL:1,2015-08-05T08:00:00Z,30.2513,-88.0778,-1.72,28.85,2 
DISL,ioos:station:DISL:DISL:1,2015-08-05T08:30:00Z,30.2513,-88.0778,-1.72,28.84,2 
DISL,ioos:station:DISL:DISL:1,2015-08-05T09:00:00Z,30.2513,-88.0778,-1.72,29.25,2 
DISL,ioos:station:DISL:DISL:1,2015-08-05T09:30:00Z,30.2513,-88.0778,-1.72,29.32,2 
DISL,ioos:station:DISL:DISL:1,2015-08-05T10:00:00Z,30.2513,-88.0778,-1.72,29.26,2 
DISL,ioos:station:DISL:DISL:1,2015-08-05T10:30:00Z,30.2513,-88.0778,-1.72,29.21,2 
DISL,ioos:station:DISL:DISL:1,2015-08-05T11:00:00Z,30.2513,-88.0778,-1.72,29.12,2 
DISL,ioos:station:DISL:DISL:1,2015-08-05T11:30:00Z,30.2513,-88.0778,-1.72,28.82,2 
DISL,ioos:station:DISL:DISL:1,2015-08-05T12:00:00Z,30.2513,-88.0778,-1.72,29.03,2 
DISL,ioos:station:DISL:DISL:1,2015-08-05T12:30:00Z,30.2513,-88.0778,-1.72,28.87,2 
DISL,ioos:station:DISL:DISL:1,2015-08-05T13:00:00Z,30.2513,-88.0778,-1.72,28.32,2 
DISL,ioos:station:DISL:DISL:1,2015-08-05T13:30:00Z,30.2513,-88.0778,-1.72,28.11,2 
DISL,ioos:station:DISL:DISL:1,2015-08-05T14:00:00Z,30.2513,-88.0778,-1.72,28.43,2 
DISL,ioos:station:DISL:DISL:1,2015-08-05T14:30:00Z,30.2513,-88.0778,-1.72,28.36,2 
DISL,ioos:station:DISL:DISL:1,2015-08-05T15:00:00Z,30.2513,-88.0778,-1.72,28.16,2 
DISL,ioos:station:DISL:DISL:1,2015-08-05T15:30:00Z,30.2513,-88.0778,-1.72,28.13,2 
DISL,ioos:station:DISL:DISL:1,2015-08-05T16:00:00Z,30.2513,-88.0778,-1.72,28.04,2 
DISL,ioos:station:DISL:DISL:1,2015-08-05T16:30:00Z,30.2513,-88.0778,-1.72,28.02,2 
DISL,ioos:station:DISL:DISL:1,2015-08-05T17:00:00Z,30.2513,-88.0778,-1.72,28.0,2 
DISL,ioos:station:DISL:DISL:1,2015-08-05T17:30:00Z,30.2513,-88.0778,-1.72,28.08,2 
DISL,ioos:station:DISL:DISL:1,2015-08-05T18:00:00Z,30.2513,-88.0778,-1.72,28.07,2 
DISL,ioos:station:DISL:DISL:1,2015-08-05T18:30:00Z,30.2513,-88.0778,-1.72,28.09,2 
DISL,ioos:station:DISL:DISL:1,2015-08-05T19:00:00Z,30.2513,-88.0778,-1.72,28.19,2 
DISL,ioos:station:DISL:DISL:1,2015-08-05T19:30:00Z,30.2513,-88.0778,-1.72,28.19,2 
DISL,ioos:station:DISL:DISL:1,2015-08-05T20:00:00Z,30.2513,-88.0778,-1.72,28.24,2 
DISL,ioos:station:DISL:DISL:1,2015-08-05T20:30:00Z,30.2513,-88.0778,-1.72,28.21,2 
DISL,ioos:station:DISL:DISL:1,2015-08-05T21:00:00Z,30.2513,-88.0778,-1.72,28.18,2 
DISL,ioos:station:DISL:DISL:1,2015-08-05T21:30:00Z,30.2513,-88.0778,-1.72,28.22,2 
DISL,ioos:station:DISL:DISL:1,2015-08-05T22:00:00Z,30.2513,-88.0778,-1.72,28.3,2 
DISL,ioos:station:DISL:DISL:1,2015-08-05T22:30:00Z,30.2513,-88.0778,-1.72,28.29,2 
DISL,ioos:station:DISL:DISL:1,2015-08-05T23:00:00Z,30.2513,-88.0778,-1.72,28.41,2 
DISL,ioos:station:DISL:DISL:1,2015-08-05T23:30:00Z,30.2513,-88.0778,-1.72,28.38,2 
DISL,ioos:station:DISL:DISL:1,2015-08-06T00:00:00Z,30.2513,-88.0778,-1.72,28.43,2 
DISL,ioos:station:DISL:DISL:1,2015-08-06T00:30:00Z,30.2513,-88.0778,-1.72,28.53,2 
DISL,ioos:station:DISL:DISL:1,2015-08-06T01:00:00Z,30.2513,-88.0778,-1.72,28.57,2 
DISL,ioos:station:DISL:DISL:1,2015-08-06T01:30:00Z,30.2513,-88.0778,-1.72,28.42,2 
DISL,ioos:station:DISL:DISL:1,2015-08-06T02:00:00Z,30.2513,-88.0778,-1.72,28.41,2 
DISL,ioos:station:DISL:DISL:1,2015-08-06T02:30:00Z,30.2513,-88.0778,-1.72,28.42,2 
DISL,ioos:station:DISL:DISL:1,2015-08-06T03:00:00Z,30.2513,-88.0778,-1.72,28.4,2 
DISL,ioos:station:DISL:DISL:1,2015-08-06T03:30:00Z,30.2513,-88.0778,-1.72,28.4,2 
DISL,ioos:station:DISL:DISL:1,2015-08-06T04:00:00Z,30.2513,-88.0778,-1.72,28.38,2 
DISL,ioos:station:DISL:DISL:1,2015-08-06T04:30:00Z,30.2513,-88.0778,-1.72,28.39,2 
DISL,ioos:station:DISL:DISL:1,2015-08-06T05:00:00Z,30.2513,-88.0778,-1.72,28.38,2 
DISL,ioos:station:DISL:DISL:1,2015-08-06T05:30:00Z,30.2513,-88.0778,-1.72,28.3,2 
DISL,ioos:station:DISL:DISL:1,2015-08-06T06:00:00Z,30.2513,-88.0778,-1.72,28.23,2 
DISL,ioos:station:DISL:DISL:1,2015-08-06T06:30:00Z,30.2513,-88.0778,-1.72,28.17,2 
DISL,ioos:station:DISL:DISL:1,2015-08-06T07:00:00Z,30.2513,-88.0778,-1.72,28.03,2 
DISL,ioos:station:DISL:DISL:1,2015-08-06T07:30:00Z,30.2513,-88.0778,-1.72,27.79,2 
DISL,ioos:station:DISL:DISL:1,2015-08-06T08:00:00Z,30.2513,-88.0778,-1.72,27.7,2 
DISL,ioos:station:DISL:DISL:1,2015-08-06T08:30:00Z,30.2513,-88.0778,-1.72,27.69,2 
DISL,ioos:station:DISL:DISL:1,2015-08-06T09:00:00Z,30.2513,-88.0778,-1.72,27.67,2 
DISL,ioos:station:DISL:DISL:1,2015-08-06T09:30:00Z,30.2513,-88.0778,-1.72,27.61,2 
DISL,ioos:station:DISL:DISL:1,2015-08-06T10:00:00Z,30.2513,-88.0778,-1.72,27.54,2 
DISL,ioos:station:DISL:DISL:1,2015-08-06T10:30:00Z,30.2513,-88.0778,-1.72,27.57,2 
DISL,ioos:station:DISL:DISL:1,2015-08-06T11:00:00Z,30.2513,-88.0778,-1.72,27.54,2 
DISL,ioos:station:DISL:DISL:1,2015-08-06T11:30:00Z,30.2513,-88.0778,-1.72,27.59,2 
DISL,ioos:station:DISL:DISL:1,2015-08-06T12:00:00Z,30.2513,-88.0778,-1.72,27.5,2 
DISL,ioos:station:DISL:DISL:1,2015-08-06T12:30:00Z,30.2513,-88.0778,-1.72,27.52,2 
DISL,ioos:station:DISL:DISL:1,2015-08-06T13:00:00Z,30.2513,-88.0778,-1.72,27.44,2 
DISL,ioos:station:DISL:DISL:1,2015-08-06T13:30:00Z,30.2513,-88.0778,-1.72,27.49,2 
DISL,ioos:station:DISL:DISL:1,2015-08-06T14:00:00Z,30.2513,-88.0778,-1.72,27.55,2 
DISL,ioos:station:DISL:DISL:1,2015-08-06T14:30:00Z,30.2513,-88.0778,-1.72,27.68,2 
DISL,ioos:station:DISL:DISL:1,2015-08-06T15:00:00Z,30.2513,-88.0778,-1.72,27.68,2 
DISL,ioos:station:DISL:DISL:1,2015-08-06T15:30:00Z,30.2513,-88.0778,-1.72,27.69,2 
DISL,ioos:station:DISL:DISL:1,2015-08-06T16:00:00Z,30.2513,-88.0778,-1.72,27.72,2 
DISL,ioos:station:DISL:DISL:1,2015-08-06T16:30:00Z,30.2513,-88.0778,-1.72,27.85,2 
DISL,ioos:station:DISL:DISL:1,2015-08-06T17:00:00Z,30.2513,-88.0778,-1.72,28.19,2 
DISL,ioos:station:DISL:DISL:1,2015-08-06T17:30:00Z,30.2513,-88.0778,-1.72,28.36,2 
DISL,ioos:station:DISL:DISL:1,2015-08-06T18:00:00Z,30.2513,-88.0778,-1.72,28.5,2 
DISL,ioos:station:DISL:DISL:1,2015-08-06T18:30:00Z,30.2513,-88.0778,-1.72,28.78,2 
DISL,ioos:station:DISL:DISL:1,2015-08-06T19:00:00Z,30.2513,-88.0778,-1.72,28.77,2 
DISL,ioos:station:DISL:DISL:1,2015-08-06T19:30:00Z,30.2513,-88.0778,-1.72,28.66,2 
DISL,ioos:station:DISL:DISL:1,2015-08-06T20:00:00Z,30.2513,-88.0778,-1.72,28.81,2 
DISL,ioos:station:DISL:DISL:1,2015-08-06T20:30:00Z,30.2513,-88.0778,-1.72,28.99,2 
DISL,ioos:station:DISL:DISL:1,2015-08-06T21:00:00Z,30.2513,-88.0778,-1.72,29.01,2 
DISL,ioos:station:DISL:DISL:1,2015-08-06T21:30:00Z,30.2513,-88.0778,-1.72,28.92,2 
DISL,ioos:station:DISL:DISL:1,2015-08-06T22:00:00Z,30.2513,-88.0778,-1.72,28.8,2 
DISL,ioos:station:DISL:DISL:1,2015-08-06T22:30:00Z,30.2513,-88.0778,-1.72,28.85,2 
DISL,ioos:station:DISL:DISL:1,2015-08-06T23:00:00Z,30.2513,-88.0778,-1.72,29.0,2 
DISL,ioos:station:DISL:DISL:1,2015-08-06T23:30:00Z,30.2513,-88.0778,-1.72,29.33,2 